User: anonymous
Location: Caltech
(34.1382°N, 118.1253°W)
Time: 09:16:14
(UTC-07:00)
Language:

Lacrosse 5 - Orbit

View from above orbital plane
View from above orbital plane
View from above satellite
View from above satellite

Ground track
Ground track

The orbit data is extracted from the following two-line orbital elements,

1 28646U 05016A   14272.81744531 0.00000100  00000-0  23781-4 0    06
2 28646  57.0090 226.8734 0011602 114.3025 245.6975 14.53514739    07
Epoch (UTC): 29 September 2014 19:37:07
Eccentricity: 0.0011602
inclination: 57.0090°
perigee height: 706 km
apogee height: 722 km
right ascension of ascending node: 226.8734°
argument of perigee: 114.3025°
revolutions per day: 14.53514739
mean anomaly at epoch: 245.6975°
orbit number at epoch: 0

The dashed part of the orbit path shows where the satellite is in the earth's shadow,  

DLR